Wind_Speed
22 22 22 22 22 22 22 21 21 21 21 21 21 21 22 22 21 20 19 19 19 19 20 20 20 20 20 20 20 19 19 19 19 19 19 20 20 20 20 20 20 20 19 19 20 19 19 19 19
22 22 22 23 23 22 21 21 21 21 21 22 22 22 22 22 22 20 19 20 20 20 20 21 21 21 21 21 21 21 21 21 21 21 21 21 21 21 22 22 22 22 22 21 21 21 21 21 21
21 22 23 23 23 22 21 21 21 21 21 22 22 22 22 22 22 22 21 21 21 21 22 22 22 22 22 23 23 23 23 23 23 23 23 23 23 23 23 23 23 23 23 23 23 23 23 23 22
22 22 23 23 23 23 23 23 24 23 23 23 23 23 23 23 23 24 23 23 23 23 23 23 23 23 24 24 24 24 25 25 25 25 25 25 25 25 25 25 25 25 25 26 25 25 25 25 24
23 23 23 22 22 23 24 25 25 24 24 25 25 24 24 24 25 25 25 24 24 24 24 24 24 25 25 25 25 25 26 26 26 26 26 27 27 27 27 27 27 27 27 27 27 27 27 26 26
24 24 24 23 23 24 25 25 26 25 25 26 25 25 24 25 25 26 26 26 26 26 26 26 27 27 27 27 27 27 28 28 28 28 28 28 28 28 29 29 29 28 28 28 29 29 29 28 28
24 24 24 24 24 24 25 25 26 26 26 26 26 25 25 25 26 27 27 28 27 28 28 29 29 29 29 30 30 30 30 30 30 30 30 30 30 30 30 31 31 31 31 31 30 30 30 30 30
23 24 24 24 24 25 25 25 25 26 26 26 26 25 25 26 27 28 28 28 28 29 29 30 30 31 31 31 32 32 32 32 32 32 32 32 33 32 32 33 33 34 34 33 33 33 33 33 33
22 23 24 24 24 25 25 25 26 26 26 26 26 26 26 27 28 28 29 29 29 29 29 30 31 31 32 33 33 34 34 34 34 34 34 35 35 35 35 35 36 36 36 36 36 36 36 36 36
20 21 22 23 23 24 25 25 25 26 26 25 25 26 26 27 28 28 29 29 30 30 30 31 32 33 33 34 34 35 36 36 36 36 36 36 37 37 37 37 38 38 38 38 38 39 39 39 38
18 19 20 21 22 23 24 24 24 25 25 26 26 26 27 27 28 28 29 29 30 30 31 32 33 33 34 35 35 36 36 37 38 38 38 39 39 39 39 39 39 40 40 40 40 41 40 41 40
18 18 19 20 21 21 22 23 23 23 25 26 26 26 26 27 27 28 28 29 29 30 31 32 33 34 35 36 36 37 37 38 38 39 39 40 40 40 41 41 41 42 42 42 43 43 43 43 43
18 18 18 19 20 21 21 20 21 22 24 24 25 25 25 26 27 28 28 29 30 30 31 32 33 34 35 36 37 38 39 39 40 41 41 41 42 43 43 44 44 44 44 45 45 45 45 45 45
19 19 19 19 20 20 20 20 20 21 23 23 23 24 25 26 27 28 29 30 30 31 32 33 34 35 36 37 38 38 39 40 41 42 43 44 44 45 45 46 46 46 47 47 48 48 48 49 48
20 20 20 20 21 21 21 21 21 22 22 23 23 25 26 27 27 28 29 30 30 31 32 33 34 35 36 38 39 39 40 41 42 43 44 45 45 46 47 47 47 48 49 49 50 50 50 50 50
22 21 21 21 22 22 22 21 22 23 23 24 24 25 26 27 28 29 29 30 31 32 33 34 35 36 37 38 39 40 41 42 42 44 45 46 47 47 48 48 49 49 50 51 52 52 53 53 53
23 22 22 22 23 23 23 23 24 25 25 25 26 26 27 28 29 30 31 31 32 33 34 35 36 37 37 38 39 40 41 42 43 44 46 47 48 48 49 50 50 51 52 53 54 54 54 55 55
24 24 23 24 24 25 25 24 26 26 26 27 27 28 28 28 30 31 32 32 33 34 35 36 36 37 38 38 39 40 41 42 43 44 45 47 48 49 50 51 51 52 53 54 55 55 56 57 57
27 26 26 25 26 26 25 25 26 27 27 27 27 28 28 29 30 31 33 34 34 35 36 36 37 37 38 39 40 41 42 43 44 46 47 48 49 50 51 52 53 54 55 56 57 57 57 58 59
29 28 28 28 28 28 27 26 26 26 27 28 28 29 29 30 31 31 33 34 35 36 37 38 38 39 39 40 41 42 44 45 46 48 49 50 51 52 52 54 55 56 56 57 58 59 59 59 60
31 31 30 30 30 30 30 29 27 27 28 28 29 30 30 31 31 32 34 35 36 37 38 39 40 40 41 42 43 44 46 47 48 49 50 52 53 54 55 56 57 58 59 59 60 61 61 61 61
34 33 33 33 32 32 32 32 29 29 29 30 30 31 31 32 33 34 35 36 38 39 40 41 41 42 44 45 46 47 48 49 51 51 52 53 55 56 57 58 59 60 61 61 61 62 62 62 62
35 35 35 35 35 35 34 35 33 31 31 31 32 32 33 33 34 36 37 37 38 40 41 42 43 44 45 47 49 50 51 52 52 53 54 56 57 58 59 60 60 61 62 62 62 63 63 63 63
37 37 37 37 37 38 36 37 36 34 33 33 34 35 35 35 36 37 38 38 39 41 42 43 44 45 47 48 50 51 53 54 54 55 56 58 59 60 61 61 61 62 63 63 63 63 64 64 64
38 37 38 39 40 40 38 39 39 37 36 36 36 37 37 38 38 39 39 40 41 43 44 45 46 47 48 50 52 53 54 55 56 57 58 59 61 61 62 62 62 62 63 63 63 64 64 64 63
38 38 39 41 42 41 41 41 40 40 39 38 39 39 39 39 40 41 41 42 43 44 45 47 48 49 50 51 53 55 56 57 58 59 60 61 62 62 63 63 62 62 62 62 62 62 62 61 61
40 40 40 42 44 44 44 44 42 41 41 41 41 41 41 41 42 42 43 44 45 46 47 48 49 50 51 53 55 56 57 58 60 60 61 61 61 62 62 62 61 61 61 61 60 60 59 58 56
42 41 41 42 44 45 46 45 44 43 42 42 43 43 43 43 44 44 45 46 47 48 48 50 50 51 53 54 56 57 58 58 59 59 60 61 61 61 61 60 59 59 59 59 58 56 55 55 54
43 43 43 44 45 46 47 46 45 44 44 44 44 44 44 44 45 46 47 48 49 49 50 51 52 53 54 55 57 57 58 58 58 59 60 60 60 59 59 58 57 57 57 56 54 53 53 52 51
45 45 45 46 46 47 48 47 45 45 45 45 45 45 46 46 47 48 48 48 49 50 51 52 53 55 55 56 57 57 57 58 58 59 59 59 58 57 57 56 55 54 53 52 51 50 49 49 47
Wind_Direction
234 235 235 236 237 237 238 237 237 237 238 237 238 239 242 245 247 248 249 249 249 250 252 252 252 253 255 257 258 259 260 261 262 264 265 265 265 266 266 267 269 272 273 274 272 272 271 272 271
234 235 236 236 237 237 237 237 238 240 239 239 239 240 241 244 246 248 248 249 250 251 252 253 254 254 255 256 258 259 260 261 262 263 265 266 267 267 267 268 269 270 272 273 274 272 272 273 272
236 236 237 238 238 238 239 238 239 240 241 241 242 242 243 245 247 248 248 249 250 251 253 255 256 256 256 256 257 259 260 260 261 262 264 266 267 269 268 269 269 270 271 272 273 273 274 276 276
238 238 239 240 240 241 241 240 240 240 242 244 245 246 246 248 249 250 251 251 252 253 254 256 257 257 258 258 258 259 260 261 262 263 264 265 266 268 269 269 269 270 271 271 272 272 273 275 276
240 240 242 242 243 243 243 243 243 243 243 245 247 248 249 250 251 252 253 252 253 255 255 256 257 257 258 259 260 261 262 262 263 264 264 265 266 267 268 269 270 270 271 271 272 272 272 273 274
243 243 244 245 245 245 245 245 245 245 246 247 248 250 250 251 252 253 254 254 255 256 257 257 258 258 259 260 261 262 262 263 263 264 265 265 266 267 267 268 269 270 270 272 272 272 272 272 272
244 244 245 245 245 246 247 249 249 249 248 248 249 250 251 252 253 255 255 256 256 256 257 258 260 261 261 262 262 262 263 263 264 265 266 267 267 267 268 268 268 269 270 271 272 272 272 273 273
246 246 246 246 246 247 249 250 250 251 250 250 250 251 252 252 254 256 257 257 257 257 258 259 260 261 262 262 263 264 264 264 265 266 267 267 267 268 268 269 269 269 270 270 271 272 272 272 272
248 248 248 249 249 249 250 250 250 251 251 251 251 251 251 253 254 256 257 258 258 258 258 259 260 260 262 263 264 264 265 266 266 266 267 267 268 268 268 269 269 270 269 270 270 271 272 272 272
251 251 251 250 250 249 249 250 250 251 252 253 252 252 252 254 256 257 258 259 260 260 261 261 261 262 262 263 264 265 266 267 267 267 267 268 268 269 269 269 270 270 270 269 269 270 270 272 272
253 253 251 251 251 250 249 250 251 253 253 253 253 253 254 254 256 258 259 261 261 262 262 262 263 265 265 265 265 266 267 267 268 268 268 268 269 269 269 270 270 270 270 270 270 270 270 271 272
254 255 254 253 252 250 250 251 252 254 255 255 255 253 255 256 257 259 260 261 262 263 263 263 264 265 266 266 267 267 267 267 268 269 269 269 269 269 269 269 269 270 271 271 270 270 271 271 271
254 255 255 254 253 251 251 252 253 255 257 256 256 256 256 256 258 260 261 262 263 264 265 265 265 265 265 266 266 267 267 267 267 268 269 269 269 269 269 269 269 269 270 270 270 270 270 270 271
253 254 255 255 254 253 253 253 255 256 259 259 258 258 258 258 260 261 263 264 265 266 266 266 266 266 266 267 267 268 268 268 268 269 269 270 270 270 270 270 270 269 269 270 270 270 270 270 270
252 254 256 256 256 256 255 254 255 257 260 261 261 260 260 261 262 263 264 266 267 267 268 268 268 269 269 268 268 269 269 269 269 270 271 271 271 271 271 271 270 270 270 270 270 270 270 270 269
252 253 255 257 257 258 257 256 258 260 262 263 264 264 264 264 264 265 266 266 267 268 269 270 270 270 270 270 270 270 271 271 271 272 272 272 273 273 272 272 272 271 271 271 271 270 270 269 269
253 255 256 257 258 259 259 260 262 263 264 265 266 266 267 266 266 267 268 268 268 269 271 272 272 272 271 271 270 271 272 272 272 273 274 273 274 273 273 273 273 273 273 272 272 271 271 269 269
254 256 257 258 259 259 260 261 263 264 265 266 267 268 268 269 269 269 269 269 270 271 272 273 273 273 273 273 272 273 273 274 274 275 275 275 275 274 274 274 274 275 274 274 273 272 271 270 269
254 256 258 260 260 260 261 261 262 264 265 267 268 269 270 271 271 272 272 271 272 273 274 274 274 273 273 273 274 274 275 276 276 276 277 278 277 276 276 276 276 276 276 276 274 273 272 271 270
256 258 260 261 262 262 262 262 263 265 267 268 269 270 272 272 273 273 274 274 274 275 276 276 276 275 275 276 276 277 277 278 278 279 279 279 279 278 277 277 277 277 277 277 276 275 274 272 271
257 259 261 262 263 264 264 262 263 266 268 269 271 272 273 274 276 276 276 276 276 276 276 277 277 277 276 277 278 279 280 280 281 280 280 280 279 279 278 280 279 278 277 278 278 276 275 273 272
258 260 261 262 263 265 265 266 264 266 268 270 272 273 274 275 276 277 277 278 278 278 278 279 278 278 278 279 280 281 281 281 281 281 281 281 280 281 281 281 281 280 279 278 278 277 276 274 272
258 259 260 262 264 265 266 268 267 268 269 271 272 273 274 276 277 278 279 281 281 280 280 280 280 280 280 281 281 282 282 282 282 282 282 282 282 282 282 282 282 282 280 279 279 278 276 275 274
257 258 260 262 263 264 265 268 268 269 271 272 273 275 276 277 278 279 281 282 283 282 281 282 281 281 282 282 283 284 284 284 283 283 283 284 283 283 283 283 282 282 281 281 280 279 277 276 274
256 258 260 262 263 265 267 268 270 271 273 274 275 277 278 279 280 281 282 283 283 283 283 284 284 283 283 284 284 285 285 286 285 285 285 285 284 284 284 283 283 282 282 281 280 279 278 276 274
256 257 260 263 265 267 267 268 270 272 274 276 278 278 279 281 282 282 284 285 286 286 286 285 285 285 285 285 286 286 287 287 287 287 286 286 285 284 284 284 283 282 282 281 280 280 278 275 273
255 257 260 262 264 266 267 269 271 274 276 278 280 281 281 282 283 284 286 287 288 288 288 288 287 286 286 287 288 288 288 288 289 288 287 287 286 285 285 284 283 282 282 280 279 279 277 274 272
255 257 258 261 264 267 268 270 273 275 277 278 280 281 282 282 284 285 286 287 288 289 289 289 289 289 288 289 290 290 290 290 289 289 287 286 286 285 284 284 282 281 282 280 278 277 276 274 271
255 257 259 262 264 267 270 272 274 277 279 280 281 281 282 283 284 286 287 288 288 289 290 290 290 290 290 291 291 290 291 290 290 289 288 288 288 286 285 283 282 281 281 279 277 275 274 272 271
255 256 258 261 264 266 269 272 274 277 279 280 281 282 283 284 285 286 288 288 288 289 290 290 290 290 290 291 291 292 292 291 290 289 288 288 288 287 285 283 282 280 279 277 276 275 273 271 271
Height
5820 5822 5824 5825 5827 5828 5829 5832 5832 5834 5835 5836 5837 5838 5839 5841 5843 5846 5846 5846 5847 5847 5848 5849 5849 5850 5851 5851 5852 5852 5853 5853 5854 5854 5855 5855 5855 5856 5856 5856 5856 5857 5857 5856 5856 5856 5856 5856 5857
5816 5818 5820 5822 5823 5824 5826 5828 5829 5830 5831 5832 5833 5835 5836 5836 5838 5840 5841 5842 5843 5844 5844 5845 5846 5847 5847 5848 5848 5849 5850 5850 5850 5851 5851 5852 5852 5852 5853 5853 5853 5853 5853 5853 5853 5853 5853 5853 5853
5813 5814 5817 5818 5819 5821 5823 5824 5825 5826 5827 5828 5829 5830 5832 5833 5834 5835 5837 5838 5839 5840 5840 5841 5842 5842 5843 5844 5845 5845 5846 5846 5847 5847 5848 5848 5849 5849 5849 5849 5849 5850 5850 5850 5850 5850 5849 5849 5850
5809 5811 5812 5814 5815 5817 5818 5820 5821 5822 5823 5824 5825 5826 5828 5829 5830 5831 5832 5834 5835 5835 5836 5837 5838 5838 5839 5840 5840 5841 5842 5842 5843 5843 5844 5844 5845 5845 5845 5845 5845 5845 5846 5846 5845 5845 5845 5846 5846
5805 5806 5808 5809 5810 5812 5813 5815 5816 5818 5819 5820 5821 5822 5823 5824 5825 5826 5827 5829 5830 5831 5832 5832 5833 5833 5834 5835 5836 5837 5837 5838 5838 5839 5839 5840 5840 5840 5841 5841 5841 5841 5841 5841 5841 5841 5841 5841 5841
5801 5802 5803 5804 5806 5807 5808 5809 5811 5813 5814 5815 5816 5818 5819 5820 5820 5821 5822 5824 5825 5826 5827 5827 5828 5829 5829 5830 5831 5832 5832 5833 5833 5834 5834 5835 5835 5835 5836 5836 5836 5836 5836 5836 5836 5836 5836 5836 5836
5796 5797 5798 5799 5801 5802 5804 5805 5806 5807 5809 5810 5812 5813 5814 5815 5815 5816 5817 5818 5820 5821 5821 5822 5822 5823 5824 5825 5825 5826 5826 5827 5828 5828 5828 5829 5829 5830 5830 5830 5830 5830 5831 5830 5830 5830 5831 5831 5831
5790 5792 5793 5794 5796 5797 5799 5799 5800 5802 5803 5805 5806 5808 5809 5809 5810 5811 5812 5813 5814 5815 5816 5816 5817 5817 5818 5819 5819 5820 5820 5821 5821 5822 5822 5823 5823 5823 5824 5824 5824 5824 5824 5824 5824 5825 5825 5825 5825
5785 5788 5788 5790 5791 5792 5793 5794 5795 5796 5797 5799 5800 5802 5803 5804 5804 5805 5806 5807 5808 5809 5810 5810 5811 5811 5812 5812 5813 5813 5814 5814 5815 5815 5815 5816 5816 5816 5817 5817 5817 5817 5817 5817 5818 5818 5818 5818 5818
5781 5782 5783 5784 5785 5786 5787 5788 5789 5790 5792 5793 5794 5796 5797 5797 5798 5799 5800 5801 5802 5803 5803 5804 5804 5805 5805 5806 5806 5806 5807 5807 5807 5808 5808 5808 5809 5809 5809 5809 5809 5809 5810 5810 5810 5810 5810 5810 5810
5776 5777 5778 5779 5779 5780 5781 5783 5784 5785 5786 5787 5788 5789 5790 5791 5792 5793 5793 5794 5795 5796 5797 5797 5797 5798 5798 5798 5799 5799 5799 5799 5799 5800 5800 5801 5801 5801 5801 5801 5801 5801 5801 5802 5802 5802 5802 5802 5802
5772 5772 5773 5774 5774 5775 5776 5777 5778 5779 5780 5781 5782 5783 5784 5785 5786 5787 5787 5788 5789 5789 5789 5790 5790 5790 5790 5791 5791 5791 5791 5791 5791 5791 5792 5792 5792 5792 5792 5792 5792 5792 5793 5793 5793 5793 5793 5793 5793
5767 5767 5768 5768 5769 5770 5771 5772 5773 5774 5774 5775 5776 5777 5778 5779 5780 5780 5781 5781 5782 5782 5782 5782 5782 5782 5782 5783 5783 5783 5783 5783 5783 5783 5783 5783 5783 5783 5783 5783 5783 5783 5783 5783 5783 5783 5783 5783 5783
5762 5763 5763 5763 5764 5765 5766 5767 5768 5768 5768 5769 5770 5771 5772 5772 5773 5774 5774 5774 5774 5775 5775 5775 5774 5774 5774 5774 5774 5774 5774 5774 5774 5773 5773 5773 5773 5773 5773 5773 5773 5773 5773 5773 5773 5773 5773 5773 5773
5757 5758 5758 5759 5759 5760 5761 5762 5762 5762 5763 5763 5764 5764 5765 5766 5766 5766 5767 5767 5767 5767 5767 5766 5766 5766 5765 5765 5765 5765 5764 5764 5764 5764 5763 5763 5763 5763 5763 5762 5762 5762 5762 5762 5761 5761 5761 5762 5762
5752 5753 5754 5754 5754 5754 5757 5757 5757 5756 5757 5757 5757 5758 5758 5759 5759 5759 5759 5759 5759 5759 5759 5758 5757 5757 5756 5756 5755 5755 5754 5754 5754 5753 5753 5752 5752 5752 5751 5751 5751 5751 5750 5749 5749 5749 5749 5749 5749
5746 5747 5748 5749 5748 5749 5750 5751 5751 5750 5751 5751 5751 5751 5751 5752 5752 5751 5751 5751 5750 5750 5750 5749 5748 5747 5747 5746 5746 5745 5744 5743 5743 5742 5742 5741 5740 5740 5740 5739 5739 5738 5738 5737 5736 5736 5735 5735 5736
5740 5741 5742 5742 5742 5743 5744 5745 5744 5744 5744 5745 5744 5744 5744 5744 5744 5743 5743 5742 5742 5741 5740 5740 5739 5738 5737 5736 5736 5735 5734 5733 5732 5731 5730 5729 5728 5728 5727 5726 5726 5725 5724 5723 5722 5722 5721 5721 5721
5733 5734 5735 5735 5735 5736 5737 5738 5738 5737 5738 5738 5737 5737 5737 5737 5736 5735 5734 5733 5733 5732 5731 5730 5729 5728 5727 5727 5726 5725 5724 5722 5721 5720 5718 5717 5716 5715 5714 5713 5712 5711 5710 5709 5708 5707 5707 5706 5705
5725 5726 5728 5728 5728 5729 5730 5731 5731 5730 5730 5730 5730 5730 5729 5728 5728 5727 5725 5724 5723 5722 5721 5720 5719 5718 5717 5716 5715 5714 5713 5711 5710 5708 5707 5705 5703 5702 5700 5699 5698 5697 5696 5694 5692 5691 5691 5691 5689
5718 5719 5720 5720 5720 5721 5722 5723 5724 5724 5723 5723 5722 5722 5721 5720 5719 5718 5716 5715 5713 5712 5710 5709 5708 5707 5706 5705 5704 5702 5701 5699 5698 5696 5694 5692 5690 5688 5686 5685 5683 5681 5680 5678 5676 5675 5674 5674 5673
5709 5711 5711 5711 5712 5712 5714 5714 5717 5716 5715 5715 5714 5714 5713 5712 5710 5709 5707 5705 5703 5701 5700 5698 5697 5696 5695 5693 5692 5690 5689 5687 5685 5683 5681 5679 5676 5674 5672 5669 5667 5666 5663 5662 5660 5658 5657 5656 5656
5700 5701 5702 5702 5702 5703 5704 5704 5708 5707 5707 5707 5706 5705 5704 5703 5701 5699 5697 5695 5692 5689 5688 5687 5685 5684 5682 5681 5679 5677 5676 5674 5672 5669 5667 5665 5662 5659 5656 5654 5651 5649 5646 5644 5642 5640 5639 5638 5638
5690 5691 5692 5692 5693 5694 5696 5695 5696 5698 5698 5698 5697 5696 5694 5693 5691 5689 5687 5684 5682 5679 5677 5675 5673 5672 5670 5668 5666 5664 5662 5660 5657 5655 5652 5650 5647 5644 5640 5637 5634 5632 5629 5627 5625 5623 5621 5619 5619
5681 5682 5682 5682 5682 5684 5686 5685 5687 5688 5688 5688 5687 5686 5684 5683 5681 5679 5677 5674 5672 5669 5666 5664 5661 5659 5657 5655 5652 5650 5647 5645 5642 5639 5637 5634 5631 5627 5624 5621 5618 5615 5612 5609 5607 5605 5603 5601 5600
5670 5672 5673 5673 5673 5674 5674 5675 5678 5678 5677 5677 5676 5675 5674 5672 5670 5668 5666 5663 5660 5657 5654 5652 5649 5646 5644 5641 5638 5635 5632 5629 5626 5623 5620 5617 5613 5610 5607 5603 5600 5597 5594 5591 5589 5586 5585 5583 5582
5659 5660 5662 5662 5661 5662 5663 5665 5667 5667 5667 5666 5665 5664 5663 5661 5659 5657 5654 5651 5648 5645 5642 5639 5636 5633 5630 5627 5624 5621 5617 5614 5611 5607 5603 5599 5596 5592 5589 5585 5582 5580 5576 5573 5571 5569 5568 5566 5565
5648 5650 5650 5650 5649 5650 5651 5654 5656 5656 5656 5655 5654 5652 5651 5649 5647 5645 5642 5639 5636 5633 5630 5627 5623 5620 5616 5613 5610 5606 5602 5598 5594 5590 5586 5582 5579 5574 5571 5568 5565 5562 5560 5557 5554 5553 5551 5550 5550
5638 5639 5639 5639 5639 5640 5640 5645 5645 5645 5644 5643 5642 5640 5638 5637 5635 5633 5630 5627 5624 5621 5617 5613 5610 5606 5602 5599 5595 5591 5587 5582 5578 5573 5570 5565 5561 5557 5554 5551 5548 5546 5543 5540 5538 5537 5536 5535 5535
5624 5626 5627 5628 5629 5628 5629 5635 5633 5633 5632 5631 5629 5627 5626 5624 5622 5620 5617 5614 5611 5608 5604 5600 5596 5592 5588 5584 5580 5576 5571 5567 5562 5558 5553 5549 5545 5541 5537 5534 5532 5529 5527 5524 5523 5522 5520 5520 5520